Miscellaneous Local Product
Issued by NWS Hastings, NE

Home | Current Version | Previous Version | Graphics & Text | Print | Product List | Glossary On
Versions: 1 2 3 4 5 6 7 8 9 10 11 12 13 14 15 16 17 18 19 20 21 22 23 24 25 26 27 28 29 30 31 32 33 34 35 36 37 38 39 40 41 42 43 44 45 46 47 48 49 50
000
AXUS43 KGID 210902
MISGRI

GID CWA HOURLY WEATHER ROUNDUP
NATIONAL WEATHER SERVICE HASTINGS NE
300 AM CST TUE FEB 21 2017

NOTE: "FAIR" INDICATES FEW OR NO CLOUDS BELOW 12,000 FEET WITH NO
SIGNIFICANT WEATHER AND/OR OBSTRUCTIONS TO VISIBILITY.

...SOUTH CENTRAL NEBRASKA...

CITY           SKY/WX    TMP DP  RH WIND       PRES   REMARKS
GRAND ISLAND   CLEAR     38  34  85 SW5       29.97R WCI  34
HASTINGS       CLEAR     38  31  76 SW3       29.97F
KEARNEY        CLEAR     39  28  65 SW8       29.98R WCI  34
ORD            CLEAR     29  25  85 CALM      29.93F
YORK           CLEAR     32  32 100 W7        29.97R WCI  26
AURORA         CLEAR     36  33  88 W8        29.97S WCI  30
LEXINGTON      CLOUDY    28  25  86 CALM      29.98R
HOLDREGE       CLOUDY    38  27  64 SW5       29.98R WCI  35
HEBRON         CLOUDY    31  30  96 W3        29.98S

...NEBRASKA PANHANDLE...

CITY           SKY/WX    TMP DP  RH WIND       PRES   REMARKS
CHADRON        CLEAR     41  26  55 S6        29.86S
ALLIANCE       CLOUDY    34  23  64 SW7       29.92S WCI  28
SCOTTSBLUFF    CLOUDY    36  22  56 N3        29.93S
SIDNEY         CLOUDY    33  18  53 W8        29.95F WCI  26

...WESTERN AND NORTH CENTRAL NEBRASKA...

CITY           SKY/WX    TMP DP  RH WIND       PRES   REMARKS
VALENTINE      CLEAR     45  26  47 SW16      29.86F
AINSWORTH      CLEAR     42  25  50 SW14      29.89S
ONEILL         CLEAR     37  31  77 SW6       29.91R WCI  32
BROKEN BOW     CLEAR     30  25  81 CALM      29.95R
IMPERIAL       CLOUDY    33  18  53 SW6       29.97F WCI  28
NORTH PLATTE   CLOUDY    26  21  81 W3        29.96F
MCCOOK         CLOUDY    30  22  72 W6        29.99R WCI  24

...EASTERN NEBRASKA...

CITY           SKY/WX    TMP DP  RH WIND       PRES   REMARKS
NORFOLK        CLEAR     30  28  92 CALM      29.92F FOG
SO SIOUX CITY  PTCLDY    31  30  96 E6        29.93S FOG     WCI  25
TEKAMAH        CLEAR     33  30  88 CALM      29.95S
COLUMBUS       CLEAR     28  27  93 W3        29.96R
ALBION         CLEAR     33  30  89 CALM      29.95S
OMAHA EPPLEY   CLEAR     35  30  82 CALM      29.97R
MILLARD        FOG       36  35  96 CALM      29.97S VSB 3/4
LINCOLN        CLEAR     32  31  96 CALM      29.98S
NEBRASKA CITY  CLEAR     45  38  77 N3        29.96S
BEATRICE       FOG       31  31  99 CALM      29.98S VSB 1
FALLS CITY     CLEAR     42  40  92 CALM      29.96F

...NORTHERN KANSAS...

CITY           SKY/WX    TMP DP  RH WIND       PRES   REMARKS
GOODLAND       CLOUDY    42  14  32 SW16      30.00S
HILL CITY      CLEAR     32  25  75 W5        30.02R WCI  27
NORTON         SUNNY     34  21  60 SW10      29.99S WCI  26
SMITH CENTER   PTCLDY    30  28  93 CALM      30.00S
HAYS           CLOUDY    27  24  89 W7        30.02R WCI  19
RUSSELL        CLOUDY    32  28  85 SW6       29.99S WCI  26
CONCORDIA      CLEAR     39  35  86 VRB3      29.98S
SALINA         CLEAR     42  37  82 CALM      29.99S
TOPEKA         PTCLDY    49  44  83 NW3       29.97R



USA.gov is the U.S. government's official web portal to all federal, state and local government web resources and services.